Location: Bletchingley
(51.2333°N, 0.1000°W)
Time: 22:52:54
(UTC+00:00)

Cosmos 1842 - Pass Details

Date: 18 September 2020
Orbit: 522 x 536 km, 82.5° (Epoch: 30 October)

Event Time Altitude Azimuth Distance (km) Brightness Sun altitude
Rises 19:00:18 0° 346° (NNW) 2,666 7.2 -9.1°
Reaches altitude 10° 19:02:28 10° 342° (NNW) 1,772 6.4 -9.4°
Maximum altitude 19:06:17 56° 264° (W) 630 4.0 -10.0°
Drops below altitude 10° 19:10:03 10° 186° (S) 1,759 5.8 -10.6°
Sets 19:12:12 0° 182° (S) 2,643 6.7 -10.9°
